Flag for Chile Weather past 2 weeks in Santiago, Chile

Now
32 °F

Clear.


Feels Like: 32 °F
Forecast: 45 / 67 °F
Wind: 2 mph from North

Location: Pudahuel

Current Time: Jul 4, 2015 at 4:42:14 AM

Latest Report: Jul 4, 2015 at 4:00 AM


Visibility: 4 mi

Pressure: 29.89 "Hg (27.81 "Hg at 576m altitude)

Humidity: 64%

Dew point: 21 °F

Location of SantiagoLocation

Historic Weather in Santiago — Graph

°F

Santiago temperature yesterday

Maximum temperature yesterday: 66 °F (at 4:00 PM)
Minimum temperature yesterday: 32 °F (at 6:00 AM)
Average temperature yesterday: 47 °F

Past Weeks' High & Low Weather Summary

 TemperatureHumidityPressure
High75 °F (Jun 19, 3:00 PM)100% (Jun 24, 10:00 AM)30.15 "Hg (Jun 24, 10:00 AM)
Low32 °F (Jun 19, 4:00 AM)8% (Jun 19, 2:00 PM)29.89 "Hg (Jun 23, 6:00 AM)
Average49 °F51%30.02 "Hg
* Reported Jun 19 3:00 AM — Jul 4 3:00 AM, Santiago, Weather by CustomWeather, © 2015

Note: Actual official high and low records may vary slightly from our data, if they occured in-between our weather recording intervals... More about our weather records

Advertising

Santiago weather history for previous 24 hours

 ConditionsComfort  
Time TempWeatherWind HumidityBarometerVisibility
3:00 AM
Sat, Jul 4
32 °FIce fog.1 mph60%29.89 "Hg4 mi
2:00 AM37 °FClear.No wind52%29.92 "Hg5 mi
1:00 AM39 °FClear.1 mph48%29.92 "Hg6 mi
12:00 AM39 °FClear.6 mph48%29.95 "Hg5 mi
11:00 PM
Fri, Jul 3
43 °FClear.3 mph46%29.95 "Hg6 mi
10:00 PM50 °FClear.6 mph37%29.95 "Hg10 mi
9:00 PM52 °FClear.3 mph32%29.95 "Hg10 mi
8:00 PM54 °FClear.3 mph35%29.95 "Hg5 mi
7:00 PM63 °FClear.5 mph27%29.95 "Hg4 mi
6:00 PM66 °FClear.6 mph21%29.95 "Hg5 mi
5:00 PM66 °FSunny.5 mph24%29.95 "Hg5 mi
4:00 PM66 °FSunny.3 mph24%29.95 "Hg5 mi
3:00 PM64 °FSunny.2 mph32%29.98 "Hg4 mi
2:00 PM61 °FSunny.3 mph39%30.01 "Hg4 mi
1:00 PM55 °FSunny.3 mph44%30.04 "Hg4 mi
12:00 PM48 °FSunny.5 mph54%30.07 "Hg4 mi
11:00 AM39 °FSunny.2 mph70%30.09 "Hg2 mi
10:00 AM32 °FSunny.2 mph87%30.09 "Hg2 mi
9:00 AM34 °FSunny.1 mph81%30.09 "Hg2 mi
8:00 AM34 °FSunny.5 mph87%30.09 "Hg3 mi
7:00 AM32 °FClear.1 mph87%30.09 "Hg4 mi
6:00 AM32 °FClear.2 mph80%30.09 "Hg4 mi
5:00 AM36 °FClear.No wind81%30.12 "Hg4 mi
4:00 AM37 °FClear.No wind75%30.12 "Hg4 mi
Weather by CustomWeather, © 2015

See weather overviewHow to use our weather pages